Japanese version Home page |
Updated on October 24, 2015 |
Profile
|
Orbital ElementsEpoch 1999 Oct. 29.0 TT = JDT 2451480.5 T 1999 Oct. 25.07445 TT MPCW q 2.9442922 (2000.0) P Q n 0.05880372 Peri. 186.69798 -0.51127206 -0.82379448 a 6.5493700 Node 294.31158 +0.80044347 -0.35271823 e 0.5504465 Incl. 15.58711 +0.31287558 -0.44379332 P 16.8 From 104 observations 1999 Nov. 5-2015 Oct. 24, mean residual 0".7.
|
Finding Charts
|
Magnitudes Graphm1 = 11.0 + 5 log d + 10.0 log r
|
The orbital elements are published on M.P.E.C. 2015-U49.
|